This is the latest recevied weather packets stored in our database for station/object W3TMB. If no packets are shown the sender has not sent any weather packets the latest 1 day(s).
| Time | Temp. | Humidity | Pressure | Rain* | Wind** | Luminosity | Snow |
|---|---|---|---|---|---|---|---|
| 1778025487 | 20.56° C | 68% | 1004.3 hPa | 0 mm | 0 m/s | 3 W/m² | - |
| 1778025184 | 20.56° C | 65% | 1004.3 hPa | 0 mm | 0 m/s | 4 W/m² | - |
| 1778024881 | 21.11° C | 65% | 1004.4 hPa | 0 mm | 0 m/s | 6 W/m² | - |
| 1778024579 | 21.11° C | 65% | 1004.6 hPa | 0 mm | 0 m/s | 10 W/m² | - |
| 1778024275 | 21.67° C | 63% | 1004.4 hPa | 0 mm | 0 m/s | 12 W/m² | - |
| 1778023973 | 21.67° C | 62% | 1004.4 hPa | 0 mm | 0 m/s | 12 W/m² | - |
| 1778023670 | 21.67° C | 60% | 1004.4 hPa | 0 mm | 0 m/s | 16 W/m² | - |
| 1778023368 | 22.22° C | 60% | 1004.2 hPa | 0 mm | 0 m/s | 21 W/m² | - |
| 1778023064 | 22.22° C | 60% | 1004.6 hPa | 0 mm | 0.45 m/s, 326° | 26 W/m² | - |
| 1778022763 | 22.22° C | 60% | 1004.6 hPa | 0 mm | 0.45 m/s, 321° | 33 W/m² | - |
| 1778022461 | 22.22° C | 60% | 1004.4 hPa | 0 mm | 0 m/s | 31 W/m² | - |
| 1778022157 | 22.22° C | 59% | 1004.3 hPa | 0 mm | 0.45 m/s, 326° | 43 W/m² | - |
| 1778021854 | 22.22° C | 59% | 1004.7 hPa | 0 mm | 0.45 m/s, 341° | 60 W/m² | - |
| 1778021551 | 22.78° C | 59% | 1004.2 hPa | 0 mm | 0.45 m/s, 326° | 70 W/m² | - |
| 1778021246 | 22.78° C | 58% | 1004.4 hPa | 0 mm | 0.89 m/s, 315° | 69 W/m² | - |
| 1778020944 | 22.78° C | 58% | 1004.3 hPa | 0 mm | 0.89 m/s, 331° | 54 W/m² | - |
| 1778020642 | 22.78° C | 58% | 1004.4 hPa | 0 mm | 0 m/s | 38 W/m² | - |
| 1778020338 | 22.78° C | 57% | 1004.6 hPa | 0 mm | 1.34 m/s, 239° | 55 W/m² | - |
| 1778020034 | 22.78° C | 58% | 1004.5 hPa | 0 mm | 1.34 m/s, 277° | 56 W/m² | - |
| 1778019730 | 22.78° C | 57% | 1004.5 hPa | 0 mm | 1.34 m/s, 307° | 62 W/m² | - |
| 1778019427 | 23.33° C | 56% | 1004.6 hPa | 0 mm | 1.34 m/s, 342° | 75 W/m² | - |
| 1778019123 | 23.33° C | 55% | 1004.5 hPa | 0 mm | 2.24 m/s, 331° | 114 W/m² | - |
| 1778018821 | 23.89° C | 53% | 1004.7 hPa | 0 mm | 0.89 m/s, 257° | 102 W/m² | - |
| 1778018519 | 23.89° C | 51% | 1004.4 hPa | 0 mm | 0.45 m/s, 327° | 48 W/m² | - |
| 1778018216 | 23.89° C | 50% | 1004.3 hPa | 0 mm | 1.34 m/s, 268° | 26 W/m² | - |
* Rain latest hour (hover to see other rain measurements)
** Current wind speed in m/s (hover to see current wind gust speed)